User: anonymous   Login
Location: Caracas
(10.5033°N, 66.8422°W)
Time: 15:44:09
(UTC-04:00)
Language:

Tiangong 2 - Orbit

View from above orbital plane
View from above orbital plane
View from above satellite
View from above satellite

Ground track
Ground track

The orbit data is extracted from the following two-line orbital elements,

1 41765U 16057A   18174.71300553 -.00012640  00000-0 -15398-3 0  9991
2 41765  42.7844 301.4705 0008012 302.8835 153.7331 15.58884987101035
Epoch (UTC): 23 June 2018 17:06:43
Eccentricity: 0.0008012
inclination: 42.7844°
perigee height: 385 km
apogee height: 396 km
right ascension of ascending node: 301.4705°
argument of perigee: 302.8835°
revolutions per day: 15.58884987
mean anomaly at epoch: 153.7331°
orbit number at epoch: 10103

The dashed part of the orbit path shows where the satellite is in the earth's shadow,  

DLR